Погода в Розо

Доминика     15°19′20″N   61°22′03″W
темп.,
°C
ветер,
м/с
пор.,
м/с
влажн.,
%
обл.,
%
осадки,
мм/ч
давл.,
гПа
погр.,
м
29 июня, ср
ср2923:00+26всв101587100 1.1 10171109
02:00+25всв111687100 2.3 10151085
05:00+25всв12158784 1.5 10161059
08:00+26в11168691 3.3 10171117
11:00+26в11158277 1.4 10181171
14:00+26в101481100 2.6 10161129
17:00+26в9138284 1.6 10161086
20:00+26в91283100 2.6 10171034
30 июня, чт
чт3023:00+26в91284100 1.3 10181027
02:00+25в81183100 2.7 1016940
05:00+26всв9118492 1.8 1016964
08:00+26всв9118090 2.1 10161077
11:00+27всв8117788 0.3 10171123
14:00+27в91180100 1.1 10151028
17:00+26всв81078100 0.1 10141086
20:00+26всв7107999 0.2 1015957
1 июля, пт
пт123:00+26всв81081100 0.4 10161000
02:00+26всв91281100 0.8 10141009
05:00+25всв10138299 1.1 10141045
08:00+26всв10148373 2.9 10151137
11:00+26всв111681100 1.6 10141288
14:00+26всв13168498 3.8 10131177
17:00+25в101389100 5.4 1013883
20:00+25в91185100 7.3 1014919
2 июля, сб
сб223:00+25в101289100 1.9 1015975
02:00+25вюв81188100 7.6 1013897
05:00+24вюв7992100 4.9 1014665
08:00+25вюв81187100 12.9 1016829
11:00+25в7982100 4.6 1017928
14:00+25всв71084100 8.1 1016859
17:00+25всв91188100 1.8 1015822
20:00+25всв91287100 3.9 1017882
3 июля, вс
вс323:00+25всв9118799 1.6 1018872
02:00+25всв8108569 3.1 1016821
05:00+26в8108396 0.5 1016921
08:00+26в797945 0.7 10171058
11:00+27в787585 0.1 10181116
14:00+27в687544 0.1 10171025
17:00+26в688091 1.0 1016836
20:00+26в798282 2.0 1018818